Regional Weather Roundup
Issued by NWS

Home | Current Version | Previous Version | Graphics & Text | Print | Product List | Glossary On
Versions: 1 2 3 4 5 6 7 8 9 10 11 12 13 14 15 16 17 18 19 20 21 22 23 24 25 26 27 28 29 30 31 32 33 34 35 36 37 38 39 40 41 42 43 44 45 46 47 48 49 50
000
ASUS43 KMPX 200110
RWRMN
WEATHER ROUNDUP FOR MINNESOTA
NATIONAL WEATHER SERVICE TWIN CITIES/CHANHASSEN MN
700 PM CST THU JAN 19 2017


NOTE: "FAIR" INDICATES FEW OR NO CLOUDS BELOW 12,000 FEET WITH NO
SIGNIFICANT WEATHER AND/OR OBSTRUCTIONS TO VISIBILITY. N/A MEANS
CURRENT SKY AND/OR WEATHER CONDITIONS ARE NOT AVAILABLE.

MNZ060>063-068>070-200200-
   Twin Cities Metro

CITY           SKY/WX    TMP DP  RH WIND       PRES   REMARKS
TWIN CITIES    CLOUDY    36  31  82 SE7       29.74F
ST PAUL        CLOUDY    36  33  89 SE7       29.76F
CRYSTAL        CLOUDY    37  30  75 E5        29.73F
BLAINE         MOCLDY    37  34  87 SE6       29.74F
LAKEVILLE        N/A     34  34 100 CALM      29.73F
EDEN PRAIRIE   CLOUDY    37  32  82 SE6       29.73F
SOUTH ST PAUL  CLOUDY    37  33  87 CALM      29.75F
LAKE ELMO      CLOUDY    36  32  87 E3        29.76F
$$
MNZ001>005-007-008-013>017-022>024-027-028-200200-
   Northwest Minnesota

CITY           SKY/WX    TMP DP  RH WIND       PRES   REMARKS
BEMIDJI        CLEAR     39  36  90 S8        29.62S
HALLOCK        FOG       32  30  93 S12       29.55S VSB 1/4 WCI  23
ROSEAU         CLOUDY    34  28  80 S7        29.56F WCI  28
WARROAD        CLOUDY    34  30  86 SE8       29.57F WCI  27
THIEF RVR FALL CLEAR     33  31  92 S10       29.58F WCI  25
CROOKSTON      CLOUDY    32  30  93 S12       29.59S WCI  23
FOSSTON        CLEAR     37  36  93 S12       29.59S
DETROIT LAKES  CLOUDY    37  36  93 S14       29.63F
MOORHEAD       FOG       36  34  93 S16       29.61S VSB 3/4
PARK RAPIDS    CLOUDY    39  34  82 S14       29.64S HAZE
MAHNOMEN       FAIR      38  35  89 S10       29.59S
$$
MNZ006-009>011-018-025>026-200200-
   North Central Minnesota

CITY           SKY/WX    TMP DP  RH WIND       PRES   REMARKS
BAUDETTE       CLOUDY    32  30  92 SE7       29.58F WCI  26
FLAG ISLAND    CLOUDY    28  27  93 SE10      29.57S WCI  19
INTL FALLS     CLEAR     36  33  89 VRB5      29.63S
WASKISH        CLEAR     37  36  93 S7        29.61F
BIG FORK       CLEAR     37  36  93 S10       29.66S
LONGVILLE      CLOUDY    39  36  87 SE7       29.67F
GRAND RAPIDS   CLEAR     38  35  89 S10       29.70S
CRANE LAKE     PTCLDY    36  36 100 S5        29.68F FOG
ORR            CLEAR     36  34  93 S7        29.65F
COOK           CLEAR     34  32  93 CALM      29.69S FOG
WALKER         CLOUDY    39  35  84 SE7       29.65F
$$
MNZ012-019>021-037-200200-
   Northeast Minnesota

CITY           SKY/WX    TMP DP  RH WIND       PRES   REMARKS
DULUTH         CLEAR     34  32  92 SE7       29.74R WCI  28
ELY            CLEAR     37  36  93 S6        29.69F
HIBBING        FOG       27  27 100 CALM      29.70S VSB 1/4
EVELETH        FOG       29  29  99 CALM      29.72S VSB 1/2
DULUTH HARBOR  CLEAR     34  32  93 CALM      29.77S FOG
TWO HARBORS    CLEAR     34  28  80 CALM      29.74R FOG
SILVER BAY       N/A     28  28 100 CALM      29.74S
GRAND MARAIS     N/A     32  31  96 CALM      29.77S
G MARAIS ARPRT FOG       30  27  86 CALM      29.74R VSB<1/4
$$
MNZ029>031-032-039>041-046>048-054>057-064-200200-
   West Central Minnesota

CITY           SKY/WX    TMP DP  RH WIND       PRES   REMARKS
FERGUS FALLS   FOG       36  36 100 SE14      29.68S VSB 1/2
WHEATON        CLOUDY    41  41 100 S12G18    29.65R FOG
MORRIS         DRZL/FOG  36  34  93 SE17      29.64S VSB 1/4
ALEXANDRIA     FOG       34  34 100 SE14      29.67F VSB 1/2 WCI  25
ELBOW LAKE     SNOW      34  34 100 E13       29.64F VSB 1/2 WCI  25
WADENA         DRZL/FOG  34  34 100 S10       29.66S VSB 1/4 WCI  26
GLENWOOD       FOG       34  34 100 SE10      29.69S VSB 1/4 WCI  26
APPLETON       CLOUDY    37  36  93 SE10G16   29.66F FOG
BENSON         CLOUDY    37  34  87 S10G18      N/A
ORTONVILLE     CLOUDY    36  32  87 SE12      29.63F FOG
MADISON        CLOUDY    37  37 100 SE9       29.65F FOG
WILLMAR        CLOUDY    36  36 100 CALM      29.70F FOG
$$
MNZ033>034-036-042>043-049>051-058-059-200200-
   Central Minnesota

CITY           SKY/WX    TMP DP  RH WIND       PRES   REMARKS
ST CLOUD       CLOUDY    37  33  85 SE7       29.71F
SAUK CENTRE    FOG       33  33 100 SE6       29.70S VSB 1   WCI  28
PAYNESVILLE    CLOUDY    35  36 100 CALM      29.71F
AITKIN         CLEAR     39  32  75 SE7       29.69S
PINE RIVER     CLOUDY    37  36  93 SE10      29.72S
BRAINERD       CLEAR     35  33  92 S6        29.70S FOG     WCI  30
STAPLES        SNOW      34  34 100 S10       29.68S VSB 1/2 WCI  26
LONG PRAIRIE   SNOW      32  32 100 E7        29.70S VSB 1/4 WCI  26
LITTLE FALLS     N/A     32  32 100 CALM      29.72S FOG
LITCHFIELD     CLOUDY    36  34  93 SE7       29.71S
BUFFALO        CLOUDY    36  32  87 E6        29.74S
MAPLE LAKE     MOCLDY    37  34  90 SE3       29.73S
HUTCHINSON     CLOUDY    35  34  95 E8        29.71F WCI  29
$$
MNZ037-044-045-052-053-200200-
   East Central Minnesota

CITY           SKY/WX    TMP DP  RH WIND       PRES   REMARKS
PRINCETON      CLOUDY    37  34  87 E6        29.74S
MORA           CLOUDY    36  32  87 S5        29.76S
CAMBRIDGE      CLOUDY    37  30  75 SE6       29.74S
RUSH CITY      CLOUDY    36  32  87 SE6       29.76S
MOOSE LAKE     PTCLDY    37  32  81 CALM      29.72S
HINCKLEY       CLOUDY    37  34  87 SE6       29.75S
CLOQUET        CLEAR     39  32  75 SE3       29.73S
MCGREGOR       MOCLDY    37  34  87 SE6       29.71F
$$
MNZ071>073-080-081-089-090-097-098-200200-
   Southwest Minnesota

CITY           SKY/WX    TMP DP  RH WIND       PRES   REMARKS
MONTEVIDEO     FOG       36  36 100 S7        29.69S VSB 1/4
GRANITE FALLS  FOG       36  35  97 E3        29.69F VSB 1/2
CANBY          CLOUDY    37  36  98 E6        29.64F FOG
MARSHALL       FOG       36  36 100 SE10      29.66F VSB 3/4
REDWOOD FALLS  CLOUDY    35  33  92 SE3       29.68F FOG
OLIVIA         CLOUDY    34  32  93 SE5       29.69F FOG     WCI  30
PIPESTONE      FOG       37  36  93 S10       29.62F VSB 3/4
WINDOM         FOG       36  36 100 SE3       29.68S VSB 3/4
WORTHINGTON    FOG       35  34  96 E5        29.67F VSB 1/4 WCI  31
JACKSON        CLOUDY    34  34 100 SE9       29.69S FOG     WCI  26
TRACY          CLOUDY    37  37  99 S9        29.65F FOG
SLAYTON        FOG       34  34 100 SE6       29.67S VSB 1/4 WCI  29
$$
MNZ065>067-074>077-082>085-091>093-200200-
   South Central Minnesota

CITY           SKY/WX    TMP DP  RH WIND       PRES   REMARKS
MANKATO        MOCLDY    36  32  87 SE7       29.72F
NEW ULM        CLOUDY    36  34  93 SE6       29.70F
ST JAMES       CLOUDY    36  34  93 SE10      29.70F
FAIRMONT       CLOUDY    34  34 100 SE10      29.70F FOG     WCI  26
GLENCOE        CLOUDY    35  35  99 E7        29.72S WCI  29
FARIBAULT        N/A     37  34  87 E3        29.73F
OWATONNA       CLOUDY    36  30  80 E8        29.73R
WASECA         CLOUDY    36  34  93 SE6       29.74R
ALBERT LEA     CLOUDY    36  34  93 SE8       29.72S
$$
MNZ078>079-086>088-094>096-200200-
   Southeast Minnesota

CITY           SKY/WX    TMP DP  RH WIND       PRES   REMARKS
ROCHESTER      CLOUDY    34  33  96 SE10      29.73F WCI  26
RED WING       CLOUDY    37  32  81 SE8       29.76S
STANTON        CLOUDY    39  32  77 E5        29.73S
DODGE CENTER   PTCLDY    34  32  93 CALM      29.73S
WINONA         CLOUDY    34  32  93 CALM      29.78F FOG
AUSTIN         CLOUDY    36  32  87 E6        29.72S
PRESTON        CLOUDY    33  32  95 E6        29.74F FOG     WCI  28
$$
ABBREVIATIONS USED IN REMARKS
   TC - TEMPERATURES IN CELSIUS
  WCI - WIND CHILL INDEX
   HX - HEAT INDEX
  VSB - VISIBILITY
$$




USA.gov is the U.S. government's official web portal to all federal, state and local government web resources and services.